Regional Weather Roundup
Issued by NWS

Home | Current Version | Previous Version | Graphics & Text | Print | Product List | Glossary On
Versions: 1 2 3 4 5 6 7 8 9 10 11 12 13 14 15 16 17 18 19 20 21 22 23 24 25 26 27 28 29 30 31 32 33 34 35 36 37 38 39 40 41 42 43 44 45 46 47 48 49 50
000
ASUS43 KBIS 191920
RWRND

NORTH DAKOTA REGIONAL WEATHER ROUNDUP
NATIONAL WEATHER SERVICE BISMARCK ND
200 PM CDT SAT APR 19 2014

NOTE: "FAIR" INDICATES FEW OR NO CLOUDS BELOW 12,000 FEET WITH NO
SIGNIFICANT WEATHER AND/OR OBSTRUCTIONS TO VISIBILITY.


NDZ001>003-009>011-017-192000-
NORTHWEST NORTH DAKOTA

CITY           SKY/WX    TMP DP  RH WIND       PRES   REMARKS
WILLISTON      PTSUNNY   52  34  50 W15       29.92R
MINOT          CLOUDY    48  35  60 W20       29.88R
MINOT AFB      CLOUDY    47  37  66 W20       29.87R
$$

NDZ018>021-031>035-040>046-192000-
SOUTHWEST NORTH DAKOTA

CITY           SKY/WX    TMP DP  RH WIND       PRES   REMARKS
BISMARCK       SUNNY     65  29  25 W21G30    29.92S
DICKINSON      SUNNY     58  33  39 NW18G28   29.92R
GARRISON         N/A     51  36  56 W23G32    29.91R
HETTINGER ARPT SUNNY     60  28  29 W26G36    29.97R
$$

NDZ004>008-012>016-024-026-027-054-192000-
NORTHEAST NORTH DAKOTA

CITY           SKY/WX    TMP DP  RH WIND       PRES   REMARKS
GRAND FORKS    MOSUNNY   60  37  42 W24G30    29.84R
GRND FRKS AFB  MOSUNNY   62  35  37 NW22G31   29.84R
DEVILS LAKE    CLOUDY    54  37  54 W28       29.86R
$$

NDZ022-023-025-028>030-036>039-047>053-192000-
SOUTHEAST NORTH DAKOTA

CITY           SKY/WX    TMP DP  RH WIND       PRES   REMARKS
FARGO          PTSUNNY   66  28  24 SW18      29.88S
JAMESTOWN      MOSUNNY   63  32  31 NW25G32   29.88R
$$




USA.gov is the U.S. government's official web portal to all federal, state and local government web resources and services.